Location: Karcze
(52.0945°N, 22.4786°E)
Time: 20:35:32
(UTC+00:00)

Transit 2A Rocket - Pass Details

Date: 01 August 2021
Orbit: 586 x 917 km, 66.7° (Epoch: 27 September)

Event Time Altitude Azimuth Distance (km) Brightness Sun altitude
Rises 22:29:35 0° 311° (NW) 3,291 8.9 -20.1°
Reaches altitude 10° 22:32:42 10° 292° (WNW) 2,419 7.9 -20.1°
Maximum altitude 22:36:17 18° 252° (WSW) 1,991 7.0 -20.1°
Enters shadow 22:37:27 17° 238° (WSW) 2,061 6.9 -20.1°
Drops below altitude 10° 22:40:00 10° 213° (SSW) 2,528 - -20.1°
Sets 22:43:22 0° 195° (SSW) 3,501 - -20.1°
